Tracking 31027 objects as of 19-Jul-2025
HD Live streaming from Space Station
objects crossing your sky now

USA 330

Track USA 330 now!
10-day predictions


NORAD ID: 52891
Int'l Code: 2022-064D
Perigee: 528.6 km
Apogee: 537.3 km
Inclination: 53.0 °
Period: 95.1 minutes
Semi major axis: 6903 km
RCS: Unknown
Launch date: June 19, 2022
Source: United States (US)
Launch site: AIR FORCE EASTERN TEST RANGE (AFETR)
Your satellite tracking list
STARLINK-6351
Track 1 satellite(s)




NASA's NSSDC Master Catalog

Two Line Element Set (TLE):
1 52891U 22064D   25012.73256558 0.00000000  00000-0  00000-0 0    03
2 52891  53.0058 287.8036 0006242 356.3156   3.6843 15.13407515    01
Source of the keplerian elements: McCants